Time,TemperatureF,DewpointF,PressureIn,WindDirection,WindDirectionDegrees,WindSpeedMPH,WindSpeedGustMPH,Humidity,HourlyPrecipIn,Conditions,Clouds,dailyrainin,SoftwareType,DateUTC
2013-06-10 00:02:00,72.7,68.3,29.93,SSE,161,0.0,0.0,86,0.00,,CLR,0.00,VWS V14.01,2013-06-10 05:02:00,
2013-06-10 00:07:00,72.6,68.8,29.93,SSE,161,0.0,0.0,88,0.00,,CLR,0.00,VWS V14.01,2013-06-10 05:07:00,
2013-06-10 00:12:00,72.6,68.8,29.93,SSE,160,0.0,0.0,88,0.00,,CLR,0.00,VWS V14.01,2013-06-10 05:12:00,
2013-06-10 00:17:00,72.4,68.7,29.93,SSE,160,0.0,0.0,88,0.00,,CLR,0.00,VWS V14.01,2013-06-10 05:17:00,
2013-06-10 00:22:00,72.3,68.9,29.93,SSE,160,0.0,0.0,89,0.00,,CLR,0.00,VWS V14.01,2013-06-10 05:22:00,
2013-06-10 00:27:00,72.2,68.8,29.93,SSE,161,0.0,0.0,89,0.00,,CLR,0.00,VWS V14.01,2013-06-10 05:27:00,
2013-06-10 00:32:00,71.9,68.5,29.93,SSE,161,0.0,0.0,89,0.00,,CLR,0.00,VWS V14.01,2013-06-10 05:32:00,
2013-06-10 00:37:00,71.8,68.7,29.93,SSE,160,0.0,0.0,90,0.00,,CLR,0.00,VWS V14.01,2013-06-10 05:37:00,
2013-06-10 00:42:00,71.8,68.7,29.93,SSE,161,0.0,0.0,90,0.00,,CLR,0.00,VWS V14.01,2013-06-10 05:42:00,
2013-06-10 00:47:00,71.7,68.6,29.93,SSE,161,0.0,0.0,90,0.00,,CLR,0.00,VWS V14.01,2013-06-10 05:47:00,
2013-06-10 00:52:00,71.6,68.5,29.93,SSE,160,0.0,0.0,90,0.00,,CLR,0.00,VWS V14.01,2013-06-10 05:52:00,
2013-06-10 00:57:00,71.6,68.5,29.93,SSE,160,0.0,0.0,90,0.00,,CLR,0.00,VWS V14.01,2013-06-10 05:57:00,
2013-06-10 01:02:00,71.5,68.4,29.93,SSE,161,0.0,0.0,90,0.00,,CLR,0.00,VWS V14.01,2013-06-10 06:02:00,
2013-06-10 01:07:00,71.5,68.4,29.93,SSE,160,0.0,0.0,90,0.00,,CLR,0.00,VWS V14.01,2013-06-10 06:07:00,
2013-06-10 01:12:00,71.5,68.4,29.93,SSE,160,0.0,0.0,90,0.00,,CLR,0.00,VWS V14.01,2013-06-10 06:12:00,
2013-06-10 01:17:00,71.4,68.3,29.93,SSE,161,0.0,0.0,90,0.00,,CLR,0.00,VWS V14.01,2013-06-10 06:17:00,
2013-06-10 01:22:00,71.3,68.2,29.93,SSE,161,0.0,0.0,90,0.00,,CLR,0.00,VWS V14.01,2013-06-10 06:22:00,
2013-06-10 01:27:00,71.3,68.5,29.93,SSE,160,0.0,0.0,91,0.00,,CLR,0.00,VWS V14.01,2013-06-10 06:27:00,
2013-06-10 01:32:00,71.4,68.3,29.93,SSE,160,0.0,0.0,90,0.00,,CLR,0.00,VWS V14.01,2013-06-10 06:32:00,
2013-06-10 01:37:00,71.7,68.3,29.93,SSE,161,0.0,0.0,89,0.00,,CLR,0.00,VWS V14.01,2013-06-10 06:37:00,
2013-06-10 01:42:00,71.8,68.4,29.93,SSE,160,0.0,0.0,89,0.00,,CLR,0.00,VWS V14.01,2013-06-10 06:42:00,
2013-06-10 01:47:00,71.7,68.3,29.93,SSE,160,0.0,0.0,89,0.00,,CLR,0.00,VWS V14.01,2013-06-10 06:47:00,
2013-06-10 01:52:00,71.6,68.2,29.93,SSE,160,0.0,0.0,89,0.00,,CLR,0.00,VWS V14.01,2013-06-10 06:52:00,
2013-06-10 01:57:00,71.8,68.1,29.93,SSE,160,0.0,0.0,88,0.00,,CLR,0.00,VWS V14.01,2013-06-10 06:57:00,
2013-06-10 02:02:00,72.1,68.3,29.93,SSE,161,0.0,0.0,88,0.00,,FEW200,0.00,VWS V14.01,2013-06-10 07:02:00,
2013-06-10 02:07:00,72.0,67.9,29.93,SSE,161,0.0,0.0,87,0.00,,FEW200,0.00,VWS V14.01,2013-06-10 07:07:00,
2013-06-10 02:12:00,71.9,68.2,29.93,SSE,161,0.0,0.0,88,0.00,,FEW200,0.00,VWS V14.01,2013-06-10 07:12:00,
2013-06-10 02:17:00,71.8,68.1,29.92,SSE,160,0.0,0.0,88,0.00,,FEW200,0.00,VWS V14.01,2013-06-10 07:17:00,
2013-06-10 02:22:00,71.7,68.0,29.93,SSE,160,0.0,0.0,88,0.00,,FEW200,0.00,VWS V14.01,2013-06-10 07:22:00,
2013-06-10 02:27:00,71.6,67.9,29.93,SSE,160,0.0,0.0,88,0.00,,FEW200,0.00,VWS V14.01,2013-06-10 07:27:00,
2013-06-10 02:32:00,71.5,67.8,29.93,SSE,160,0.0,0.0,88,0.00,,FEW200,0.00,VWS V14.01,2013-06-10 07:32:00,
2013-06-10 02:37:00,71.6,67.9,29.92,SSE,160,0.0,0.0,88,0.00,,FEW200,0.00,VWS V14.01,2013-06-10 07:37:00,
2013-06-10 02:42:00,71.4,67.7,29.93,SSE,160,0.0,0.0,88,0.00,,FEW200,0.00,VWS V14.01,2013-06-10 07:42:00,
2013-06-10 02:47:00,71.4,67.7,29.92,SSE,160,0.0,0.0,88,0.00,,FEW200,0.00,VWS V14.01,2013-06-10 07:47:00,
2013-06-10 02:52:00,71.2,67.5,29.92,SSE,160,0.0,0.0,88,0.00,,FEW200,0.00,VWS V14.01,2013-06-10 07:52:00,
2013-06-10 02:57:00,71.0,67.3,29.93,SSE,161,0.0,0.0,88,0.00,,FEW200,0.00,VWS V14.01,2013-06-10 07:57:00,
2013-06-10 03:02:00,70.7,67.3,29.93,SSE,160,0.0,0.0,89,0.00,,FEW200,0.00,VWS V14.01,2013-06-10 08:02:00,
2013-06-10 03:07:00,70.6,67.5,29.93,SSE,161,0.0,0.0,90,0.00,,FEW200,0.00,VWS V14.01,2013-06-10 08:07:00,
2013-06-10 03:12:00,70.3,66.9,29.93,SSE,160,0.0,0.0,89,0.00,,FEW200,0.00,VWS V14.01,2013-06-10 08:12:00,
2013-06-10 03:17:00,70.1,66.7,29.93,SSE,161,0.0,0.0,89,0.00,,FEW200,0.00,VWS V14.01,2013-06-10 08:17:00,
2013-06-10 03:22:00,69.9,67.2,29.93,SSE,160,0.0,0.0,91,0.00,,FEW200,0.00,VWS V14.01,2013-06-10 08:22:00,
2013-06-10 03:27:00,70.1,67.4,29.93,SSE,161,0.0,0.0,91,0.00,,FEW200,0.00,VWS V14.01,2013-06-10 08:27:00,
2013-06-10 03:32:00,70.3,67.2,29.93,SSE,161,0.0,0.0,90,0.00,,FEW200,0.00,VWS V14.01,2013-06-10 08:32:00,
2013-06-10 03:37:00,70.5,67.4,29.93,SSE,160,0.0,0.0,90,0.00,,FEW200,0.00,VWS V14.01,2013-06-10 08:37:00,
2013-06-10 03:42:00,70.5,67.1,29.93,SSE,161,0.0,0.0,89,0.00,,FEW200,0.00,VWS V14.01,2013-06-10 08:42:00,
2013-06-10 03:47:00,70.5,67.1,29.93,SSE,161,0.0,0.0,89,0.00,,FEW200,0.00,VWS V14.01,2013-06-10 08:47:00,
2013-06-10 03:52:00,70.5,67.1,29.93,SSE,160,0.0,0.0,89,0.00,,FEW200,0.00,VWS V14.01,2013-06-10 08:52:00,
2013-06-10 03:57:00,70.9,67.2,29.93,SSW,206,0.0,1.0,88,0.00,,FEW200,0.00,VWS V14.01,2013-06-10 08:57:00,
2013-06-10 04:02:00,71.2,67.5,29.93,SSW,210,0.0,0.0,88,0.00,,CLR,0.00,VWS V14.01,2013-06-10 09:02:00,
2013-06-10 04:07:00,71.4,67.7,29.93,SSW,211,0.0,1.0,88,0.00,,CLR,0.00,VWS V14.01,2013-06-10 09:07:00,
2013-06-10 04:12:00,71.6,67.5,29.93,SSW,211,0.0,0.0,87,0.00,,CLR,0.00,VWS V14.01,2013-06-10 09:12:00,
2013-06-10 04:17:00,71.7,67.6,29.93,SSW,211,0.0,0.0,87,0.00,,CLR,0.00,VWS V14.01,2013-06-10 09:17:00,
2013-06-10 04:22:00,71.7,67.6,29.93,SSW,211,0.0,0.0,87,0.00,,CLR,0.00,VWS V14.01,2013-06-10 09:22:00,
2013-06-10 04:27:00,71.6,67.5,29.92,SSW,211,0.0,0.0,87,0.00,,CLR,0.00,VWS V14.01,2013-06-10 09:27:00,
2013-06-10 04:32:00,71.3,67.2,29.93,SSW,211,0.0,0.0,87,0.00,,CLR,0.00,VWS V14.01,2013-06-10 09:32:00,
2013-06-10 04:37:00,71.0,67.3,29.93,SSW,211,0.0,0.0,88,0.00,,CLR,0.00,VWS V14.01,2013-06-10 09:37:00,
2013-06-10 04:42:00,70.6,66.9,29.93,SSW,211,0.0,0.0,88,0.00,,CLR,0.00,VWS V14.01,2013-06-10 09:42:00,
2013-06-10 04:47:00,70.2,66.8,29.93,SSW,211,0.0,0.0,89,0.00,,CLR,0.00,VWS V14.01,2013-06-10 09:47:00,
2013-06-10 04:52:00,70.0,66.9,29.93,SSW,211,0.0,0.0,90,0.00,,CLR,0.00,VWS V14.01,2013-06-10 09:52:00,
2013-06-10 04:57:00,69.7,66.6,29.93,SSW,211,0.0,0.0,90,0.00,,CLR,0.00,VWS V14.01,2013-06-10 09:57:00,
2013-06-10 05:02:00,69.5,66.4,29.93,SSW,211,0.0,0.0,90,0.00,,CLR,0.00,VWS V14.01,2013-06-10 10:02:00,
2013-06-10 05:07:00,69.4,66.7,29.93,SSW,211,0.0,0.0,91,0.00,,CLR,0.00,VWS V14.01,2013-06-10 10:07:00,
2013-06-10 05:12:00,69.3,66.6,29.93,SSW,211,0.0,0.0,91,0.00,,CLR,0.00,VWS V14.01,2013-06-10 10:12:00,
2013-06-10 05:17:00,69.2,66.5,29.93,SSW,211,0.0,0.0,91,0.00,,CLR,0.00,VWS V14.01,2013-06-10 10:17:00,
2013-06-10 05:22:00,69.3,66.9,29.93,SSW,211,0.0,0.0,92,0.00,,CLR,0.00,VWS V14.01,2013-06-10 10:22:00,
2013-06-10 05:27:00,69.4,67.0,29.93,SSW,211,0.0,0.0,92,0.00,,CLR,0.00,VWS V14.01,2013-06-10 10:27:00,
2013-06-10 05:32:00,69.5,67.1,29.93,SSW,211,0.0,0.0,92,0.00,,CLR,0.00,VWS V14.01,2013-06-10 10:32:00,
2013-06-10 05:37:00,69.4,66.7,29.93,SSW,211,0.0,0.0,91,0.00,,CLR,0.00,VWS V14.01,2013-06-10 10:37:00,
2013-06-10 05:42:00,69.2,66.5,29.94,SSW,211,0.0,0.0,91,0.00,,CLR,0.00,VWS V14.01,2013-06-10 10:42:00,
2013-06-10 05:47:00,68.9,66.2,29.94,SSW,211,0.0,0.0,91,0.00,,CLR,0.00,VWS V14.01,2013-06-10 10:47:00,
2013-06-10 05:52:00,68.7,66.3,29.94,SSW,211,0.0,0.0,92,0.00,,CLR,0.00,VWS V14.01,2013-06-10 10:52:00,
2013-06-10 05:57:00,68.6,66.2,29.94,SSW,211,0.0,0.0,92,0.00,,CLR,0.00,VWS V14.01,2013-06-10 10:57:00,
2013-06-10 06:02:00,68.5,66.1,29.94,SSW,211,0.0,0.0,92,0.00,,FEW200,0.00,VWS V14.01,2013-06-10 11:02:00,
2013-06-10 06:07:00,68.5,66.4,29.94,SSW,211,0.0,0.0,93,0.00,,FEW200,0.00,VWS V14.01,2013-06-10 11:07:00,
2013-06-10 06:12:00,68.6,66.5,29.94,SSW,211,0.0,0.0,93,0.00,,FEW200,0.00,VWS V14.01,2013-06-10 11:12:00,
2013-06-10 06:17:00,68.9,66.8,29.94,SSW,211,0.0,0.0,93,0.00,,FEW200,0.00,VWS V14.01,2013-06-10 11:17:00,
2013-06-10 06:22:00,69.1,66.7,29.94,SSW,211,0.0,0.0,92,0.00,,FEW200,0.00,VWS V14.01,2013-06-10 11:22:00,
2013-06-10 06:27:00,69.1,66.7,29.94,SSW,211,0.0,0.0,92,0.00,,FEW200,0.00,VWS V14.01,2013-06-10 11:27:00,
2013-06-10 06:32:00,69.0,66.6,29.94,SSW,211,0.0,0.0,92,0.00,,FEW200,0.00,VWS V14.01,2013-06-10 11:32:00,
2013-06-10 06:37:00,68.8,66.4,29.95,SSW,211,0.0,0.0,92,0.00,,FEW200,0.00,VWS V14.01,2013-06-10 11:37:00,
2013-06-10 06:42:00,68.8,66.7,29.95,SSW,211,0.0,0.0,93,0.00,,FEW200,0.00,VWS V14.01,2013-06-10 11:42:00,
2013-06-10 06:47:00,69.0,66.9,29.95,SSW,211,0.0,0.0,93,0.00,,FEW200,0.00,VWS V14.01,2013-06-10 11:47:00,
2013-06-10 06:52:00,69.3,67.2,29.95,SW,225,0.0,1.0,93,0.00,,FEW200,0.00,VWS V14.01,2013-06-10 11:52:00,
2013-06-10 06:57:00,69.8,67.7,29.95,SW,225,0.0,0.0,93,0.00,,FEW200,0.00,VWS V14.01,2013-06-10 11:57:00,
2013-06-10 07:02:00,70.5,67.8,29.95,SW,214,0.0,1.0,91,0.00,,FEW200,0.00,VWS V14.01,2013-06-10 12:02:00,
2013-06-10 07:07:00,71.5,68.4,29.95,SW,214,0.0,0.0,90,0.00,,FEW200,0.00,VWS V14.01,2013-06-10 12:07:00,
2013-06-10 07:12:00,72.4,68.7,29.95,SW,215,0.0,0.0,88,0.00,,FEW200,0.00,VWS V14.01,2013-06-10 12:12:00,
2013-06-10 07:17:00,73.4,69.0,29.95,SW,215,0.0,0.0,86,0.00,,FEW200,0.00,VWS V14.01,2013-06-10 12:17:00,
2013-06-10 07:22:00,74.4,69.3,29.95,SSW,209,0.0,0.0,84,0.00,,FEW200,0.00,VWS V14.01,2013-06-10 12:22:00,
2013-06-10 07:27:00,75.3,69.1,29.95,South,182,0.0,1.0,81,0.00,,FEW200,0.00,VWS V14.01,2013-06-10 12:27:00,
2013-06-10 07:32:00,75.8,69.2,29.95,SSW,205,0.0,2.0,80,0.00,,FEW200,0.00,VWS V14.01,2013-06-10 12:32:00,
2013-06-10 07:37:00,76.5,69.5,29.96,SSE,156,0.0,1.0,79,0.00,,FEW200,0.00,VWS V14.01,2013-06-10 12:37:00,
2013-06-10 07:43:00,77.0,69.6,29.95,SSW,199,0.0,3.0,78,0.00,,FEW200,0.00,VWS V14.01,2013-06-10 12:43:00,
2013-06-10 07:47:00,77.0,69.2,29.95,SSE,166,1.0,3.0,77,0.00,,FEW200,0.00,VWS V14.01,2013-06-10 12:47:00,
2013-06-10 07:53:00,77.4,70.0,29.95,South,182,0.0,1.0,78,0.00,,FEW200,0.00,VWS V14.01,2013-06-10 12:53:00,
2013-06-10 07:58:00,78.1,69.9,29.95,SW,217,1.0,2.0,76,0.00,,FEW200,0.00,VWS V14.01,2013-06-10 12:58:00,
2013-06-10 08:03:00,78.2,70.0,29.95,SSE,160,1.0,3.0,76,0.00,,CLR,0.00,VWS V14.01,2013-06-10 13:03:00,
2013-06-10 08:08:00,78.5,69.9,29.95,SSE,156,0.0,4.0,75,0.00,,CLR,0.00,VWS V14.01,2013-06-10 13:08:00,
2013-06-10 08:13:00,78.8,70.2,29.95,SSW,194,2.0,2.0,75,0.00,,CLR,0.00,VWS V14.01,2013-06-10 13:13:00,
2013-06-10 08:18:00,79.2,70.2,29.95,South,169,4.0,4.0,74,0.00,,CLR,0.00,VWS V14.01,2013-06-10 13:18:00,
2013-06-10 08:23:00,79.6,70.6,29.96,SSE,156,1.0,3.0,74,0.00,,CLR,0.00,VWS V14.01,2013-06-10 13:23:00,
2013-06-10 08:28:00,80.0,70.6,29.95,SSE,157,2.0,5.0,73,0.00,,CLR,0.00,VWS V14.01,2013-06-10 13:28:00,
2013-06-10 08:33:00,80.2,70.4,29.95,SSW,205,3.0,4.0,72,0.00,,CLR,0.00,VWS V14.01,2013-06-10 13:33:00,
2013-06-10 08:38:00,80.5,71.1,29.95,SSW,195,0.0,5.0,73,0.00,,CLR,0.00,VWS V14.01,2013-06-10 13:38:00,
2013-06-10 08:43:00,80.7,71.2,29.95,West,263,1.0,6.0,73,0.00,,CLR,0.00,VWS V14.01,2013-06-10 13:43:00,
2013-06-10 08:48:00,81.1,71.2,29.95,SSW,198,4.0,5.0,72,0.00,,CLR,0.00,VWS V14.01,2013-06-10 13:48:00,
2013-06-10 08:53:00,81.5,71.6,29.95,South,171,1.0,6.0,72,0.00,,CLR,0.00,VWS V14.01,2013-06-10 13:53:00,
2013-06-10 08:58:00,81.8,71.5,29.95,WSW,237,2.0,7.0,71,0.00,,CLR,0.00,VWS V14.01,2013-06-10 13:58:00,
2013-06-10 09:03:00,82.3,72.0,29.95,SW,236,3.0,5.0,71,0.00,,CLR,0.00,VWS V14.01,2013-06-10 14:03:00,
2013-06-10 09:08:00,83.0,72.6,29.95,SSW,196,0.0,5.0,71,0.00,,CLR,0.00,VWS V14.01,2013-06-10 14:08:00,
2013-06-10 09:13:00,83.4,72.2,29.95,SSW,209,4.0,6.0,69,0.00,,CLR,0.00,VWS V14.01,2013-06-10 14:13:00,
2013-06-10 09:18:00,83.9,72.7,29.95,SW,230,1.0,6.0,69,0.00,,CLR,0.00,VWS V14.01,2013-06-10 14:18:00,
2013-06-10 09:23:00,84.4,73.1,29.95,South,173,3.0,5.0,69,0.00,,CLR,0.00,VWS V14.01,2013-06-10 14:23:00,
2013-06-10 09:28:00,84.8,73.1,29.95,SW,230,2.0,7.0,68,0.00,,CLR,0.00,VWS V14.01,2013-06-10 14:28:00,
2013-06-10 09:33:00,85.2,73.0,29.95,SSE,167,4.0,7.0,67,0.00,,CLR,0.00,VWS V14.01,2013-06-10 14:33:00,
2013-06-10 09:38:00,85.5,72.8,29.95,South,182,2.0,7.0,66,0.00,,CLR,0.00,VWS V14.01,2013-06-10 14:38:00,
2013-06-10 09:43:00,86.0,73.3,29.95,SW,227,2.0,5.0,66,0.00,,CLR,0.00,VWS V14.01,2013-06-10 14:43:00,
2013-06-10 09:48:00,86.3,72.7,29.95,SSW,196,5.0,9.0,64,0.00,,CLR,0.00,VWS V14.01,2013-06-10 14:48:00,
2013-06-10 09:53:00,86.5,72.4,29.95,WSW,237,3.0,8.0,63,0.00,,CLR,0.00,VWS V14.01,2013-06-10 14:53:00,
2013-06-10 09:58:00,86.6,72.5,29.95,South,183,3.0,8.0,63,0.00,,CLR,0.00,VWS V14.01,2013-06-10 14:58:00,
2013-06-10 10:03:00,86.8,72.7,29.95,SW,232,3.0,6.0,63,0.00,,CLR,0.00,VWS V14.01,2013-06-10 15:03:00,
2013-06-10 10:08:00,87.3,72.7,29.95,SSW,194,2.0,6.0,62,0.00,,CLR,0.00,VWS V14.01,2013-06-10 15:08:00,
2013-06-10 10:13:00,87.9,72.8,29.95,SSW,213,2.0,4.0,61,0.00,,CLR,0.00,VWS V14.01,2013-06-10 15:13:00,
2013-06-10 10:18:00,88.4,73.2,29.95,West,259,2.0,6.0,61,0.00,,CLR,0.00,VWS V14.01,2013-06-10 15:18:00,
2013-06-10 10:23:00,88.4,72.8,29.95,East,86,3.0,9.0,60,0.00,,CLR,0.00,VWS V14.01,2013-06-10 15:23:00,
2013-06-10 10:28:00,88.5,72.8,29.95,WSW,254,1.0,7.0,60,0.00,,CLR,0.00,VWS V14.01,2013-06-10 15:28:00,
2013-06-10 10:33:00,88.8,73.1,29.95,WSW,238,1.0,6.0,60,0.00,,CLR,0.00,VWS V14.01,2013-06-10 15:33:00,
2013-06-10 10:38:00,89.5,73.3,29.96,WNW,296,3.0,5.0,59,0.00,,CLR,0.00,VWS V14.01,2013-06-10 15:38:00,
2013-06-10 10:43:00,90.0,73.2,29.96,SSW,209,2.0,3.0,58,0.00,,CLR,0.00,VWS V14.01,2013-06-10 15:43:00,
2013-06-10 10:48:00,90.5,73.2,29.96,SSW,200,1.0,7.0,57,0.00,,CLR,0.00,VWS V14.01,2013-06-10 15:48:00,
2013-06-10 10:53:00,90.8,72.9,29.96,SE,132,0.0,5.0,56,0.00,,CLR,0.00,VWS V14.01,2013-06-10 15:53:00,
2013-06-10 10:58:00,91.1,72.7,29.95,South,186,1.0,5.0,55,0.00,,CLR,0.00,VWS V14.01,2013-06-10 15:58:00,
2013-06-10 11:03:00,91.2,71.7,29.95,SW,229,2.0,6.0,53,0.00,,CLR,0.00,VWS V14.01,2013-06-10 16:03:00,
2013-06-10 11:08:00,91.3,72.9,29.95,SW,218,3.0,4.0,55,0.00,,CLR,0.00,VWS V14.01,2013-06-10 16:08:00,
2013-06-10 11:13:00,91.5,72.0,29.95,SSW,207,2.0,5.0,53,0.00,,CLR,0.00,VWS V14.01,2013-06-10 16:13:00,
2013-06-10 11:18:00,91.6,72.6,29.95,SW,219,2.0,3.0,54,0.00,,CLR,0.00,VWS V14.01,2013-06-10 16:18:00,
2013-06-10 11:23:00,92.0,71.9,29.95,SW,223,4.0,4.0,52,0.00,,CLR,0.00,VWS V14.01,2013-06-10 16:23:00,
2013-06-10 11:28:00,91.9,72.3,29.95,SW,225,1.0,6.0,53,0.00,,CLR,0.00,VWS V14.01,2013-06-10 16:28:00,
2013-06-10 11:33:00,92.0,71.9,29.95,SSW,197,1.0,4.0,52,0.00,,CLR,0.00,VWS V14.01,2013-06-10 16:33:00,
2013-06-10 11:38:00,92.2,72.6,29.95,South,187,2.0,5.0,53,0.00,,CLR,0.00,VWS V14.01,2013-06-10 16:38:00,
2013-06-10 11:43:00,92.6,73.5,29.95,South,178,1.0,3.0,54,0.00,,CLR,0.00,VWS V14.01,2013-06-10 16:43:00,
2013-06-10 11:48:00,92.8,71.4,29.95,SW,230,5.0,7.0,50,0.00,,CLR,0.00,VWS V14.01,2013-06-10 16:48:00,
2013-06-10 11:53:00,92.6,71.3,29.95,SW,215,2.0,7.0,50,0.00,,CLR,0.00,VWS V14.01,2013-06-10 16:53:00,
2013-06-10 11:58:00,92.7,72.5,29.95,SSW,196,2.0,5.0,52,0.00,,CLR,0.00,VWS V14.01,2013-06-10 16:58:00,
2013-06-10 12:03:00,92.8,71.4,29.95,SSW,200,1.0,6.0,50,0.00,,CLR,0.00,VWS V14.01,2013-06-10 17:03:00,
2013-06-10 12:08:00,92.9,70.9,29.95,SW,236,5.0,5.0,49,0.00,,CLR,0.00,VWS V14.01,2013-06-10 17:08:00,
2013-06-10 12:13:00,93.3,70.7,29.95,SSE,157,1.0,4.0,48,0.00,,CLR,0.00,VWS V14.01,2013-06-10 17:13:00,
2013-06-10 12:18:00,94.0,71.9,29.95,WSW,253,2.0,4.0,49,0.00,,CLR,0.00,VWS V14.01,2013-06-10 17:18:00,
2013-06-10 12:23:00,94.2,72.1,29.94,SSW,198,2.0,4.0,49,0.00,,CLR,0.00,VWS V14.01,2013-06-10 17:23:00,
2013-06-10 12:28:00,94.5,72.4,29.94,WSW,248,2.0,5.0,49,0.00,,CLR,0.00,VWS V14.01,2013-06-10 17:28:00,
2013-06-10 12:33:00,94.5,71.2,29.94,WSW,237,1.0,6.0,47,0.00,,CLR,0.00,VWS V14.01,2013-06-10 17:33:00,
2013-06-10 12:38:00,94.3,71.0,29.94,SW,218,1.0,6.0,47,0.00,,CLR,0.00,VWS V14.01,2013-06-10 17:38:00,
2013-06-10 12:43:00,94.3,71.0,29.95,SSW,210,2.0,4.0,47,0.00,,CLR,0.00,VWS V14.01,2013-06-10 17:43:00,
2013-06-10 12:48:00,94.3,71.0,29.94,SSE,154,1.0,6.0,47,0.00,,CLR,0.00,VWS V14.01,2013-06-10 17:48:00,
2013-06-10 12:54:00,94.4,71.7,29.94,SSE,155,1.0,5.0,48,0.00,,CLR,0.00,VWS V14.01,2013-06-10 17:54:00,
2013-06-10 12:59:00,94.7,70.7,29.94,West,275,0.0,6.0,46,0.00,,CLR,0.00,VWS V14.01,2013-06-10 17:59:00,
2013-06-10 13:04:00,95.0,71.6,29.94,SE,143,2.0,5.0,47,0.00,,CLR,0.00,VWS V14.01,2013-06-10 18:04:00,
2013-06-10 13:09:00,94.8,70.2,29.94,SSW,213,4.0,7.0,45,0.00,,CLR,0.00,VWS V14.01,2013-06-10 18:09:00,
2013-06-10 13:14:00,94.7,70.1,29.94,South,175,2.0,9.0,45,0.00,,CLR,0.00,VWS V14.01,2013-06-10 18:14:00,
2013-06-10 13:19:00,95.1,70.4,29.94,SW,215,2.0,5.0,45,0.00,,CLR,0.00,VWS V14.01,2013-06-10 18:19:00,
2013-06-10 13:24:00,95.1,69.8,29.94,SW,218,0.0,7.0,44,0.00,,CLR,0.00,VWS V14.01,2013-06-10 18:24:00,
2013-06-10 13:29:00,95.2,69.2,29.93,SSW,200,1.0,7.0,43,0.00,,CLR,0.00,VWS V14.01,2013-06-10 18:29:00,
2013-06-10 13:34:00,95.7,68.9,29.93,South,170,2.0,4.0,42,0.00,,CLR,0.00,VWS V14.01,2013-06-10 18:34:00,
2013-06-10 13:39:00,95.9,68.4,29.93,WSW,248,3.0,5.0,41,0.00,,CLR,0.00,VWS V14.01,2013-06-10 18:39:00,
2013-06-10 13:44:00,96.2,68.0,29.93,SW,226,1.0,5.0,40,0.00,,CLR,0.00,VWS V14.01,2013-06-10 18:44:00,
2013-06-10 13:49:00,96.3,67.3,29.93,SSE,152,0.0,4.0,39,0.00,,CLR,0.00,VWS V14.01,2013-06-10 18:49:00,
2013-06-10 13:54:00,96.5,69.0,29.93,SSE,167,3.0,6.0,41,0.00,,CLR,0.00,VWS V14.01,2013-06-10 18:54:00,
2013-06-10 13:59:00,96.5,68.2,29.93,SSW,209,3.0,6.0,40,0.00,,CLR,0.00,VWS V14.01,2013-06-10 18:59:00,
2013-06-10 14:04:00,96.6,68.3,29.93,SW,214,4.0,6.0,40,0.00,,CLR,0.00,VWS V14.01,2013-06-10 19:04:00,
2013-06-10 14:09:00,96.5,69.0,29.92,SSW,196,2.0,4.0,41,0.00,,CLR,0.00,VWS V14.01,2013-06-10 19:09:00,
2013-06-10 14:14:00,96.6,68.3,29.93,SSW,202,2.0,5.0,40,0.00,,CLR,0.00,VWS V14.01,2013-06-10 19:14:00,
2013-06-10 14:19:00,97.0,67.2,29.93,SSW,205,3.0,7.0,38,0.00,,CLR,0.00,VWS V14.01,2013-06-10 19:19:00,
2013-06-10 14:24:00,96.8,67.0,29.92,SSE,155,5.0,7.0,38,0.00,,CLR,0.00,VWS V14.01,2013-06-10 19:24:00,
2013-06-10 14:29:00,96.7,67.7,29.92,SW,232,3.0,5.0,39,0.00,,CLR,0.00,VWS V14.01,2013-06-10 19:29:00,
2013-06-10 14:34:00,96.8,67.0,29.92,SW,214,1.0,5.0,38,0.00,,CLR,0.00,VWS V14.01,2013-06-10 19:34:00,
2013-06-10 14:39:00,97.2,66.6,29.92,SSE,155,1.0,5.0,37,0.00,,CLR,0.00,VWS V14.01,2013-06-10 19:39:00,
2013-06-10 14:44:00,97.4,66.8,29.92,WSW,253,1.0,4.0,37,0.00,,CLR,0.00,VWS V14.01,2013-06-10 19:44:00,
2013-06-10 14:49:00,97.5,66.9,29.92,South,191,2.0,6.0,37,0.00,,CLR,0.00,VWS V14.01,2013-06-10 19:49:00,
2013-06-10 14:54:00,97.6,65.4,29.92,SW,218,1.0,6.0,35,0.00,,CLR,0.00,VWS V14.01,2013-06-10 19:54:00,
2013-06-10 14:59:00,97.8,66.3,29.92,SSW,210,1.0,6.0,36,0.00,,CLR,0.00,VWS V14.01,2013-06-10 19:59:00,
2013-06-10 15:04:00,98.1,66.6,29.92,WSW,257,3.0,5.0,36,0.00,,CLR,0.00,VWS V14.01,2013-06-10 20:04:00,
2013-06-10 15:09:00,98.2,65.9,29.92,SSW,202,4.0,7.0,35,0.00,,CLR,0.00,VWS V14.01,2013-06-10 20:09:00,
2013-06-10 15:14:00,98.0,66.5,29.92,SSW,199,1.0,3.0,36,0.00,,CLR,0.00,VWS V14.01,2013-06-10 20:14:00,
2013-06-10 15:19:00,98.3,66.8,29.92,SSE,156,1.0,5.0,36,0.00,,CLR,0.00,VWS V14.01,2013-06-10 20:19:00,
2013-06-10 15:24:00,98.2,65.9,29.92,WSW,237,3.0,6.0,35,0.00,,CLR,0.00,VWS V14.01,2013-06-10 20:24:00,
2013-06-10 15:29:00,98.3,65.1,29.92,SW,236,2.0,6.0,34,0.00,,CLR,0.00,VWS V14.01,2013-06-10 20:29:00,
2013-06-10 15:34:00,98.3,64.3,29.91,SSW,203,0.0,3.0,33,0.00,,CLR,0.00,VWS V14.01,2013-06-10 20:34:00,
2013-06-10 15:39:00,98.5,66.1,29.91,WNW,283,1.0,5.0,35,0.00,,CLR,0.00,VWS V14.01,2013-06-10 20:39:00,
2013-06-10 15:44:00,98.7,65.5,29.91,South,190,3.0,4.0,34,0.00,,CLR,0.00,VWS V14.01,2013-06-10 20:44:00,
2013-06-10 15:49:00,98.9,65.7,29.91,SW,226,2.0,5.0,34,0.00,,CLR,0.00,VWS V14.01,2013-06-10 20:49:00,
2013-06-10 15:54:00,98.6,65.4,29.91,WSW,245,2.0,5.0,34,0.00,,CLR,0.00,VWS V14.01,2013-06-10 20:54:00,
2013-06-10 15:59:00,98.6,65.4,29.91,West,263,0.0,4.0,34,0.00,,CLR,0.00,VWS V14.01,2013-06-10 20:59:00,
2013-06-10 16:04:00,98.5,63.6,29.91,SSE,167,1.0,5.0,32,0.00,,FEW080,0.00,VWS V14.01,2013-06-10 21:04:00,
2013-06-10 16:09:00,98.4,65.2,29.91,SW,221,2.0,4.0,34,0.00,,FEW080,0.00,VWS V14.01,2013-06-10 21:09:00,
2013-06-10 16:14:00,98.0,62.2,29.91,West,265,1.0,6.0,31,0.00,,FEW080,0.00,VWS V14.01,2013-06-10 21:14:00,
2013-06-10 16:19:00,97.8,63.8,29.91,WSW,258,0.0,5.0,33,0.00,,FEW080,0.00,VWS V14.01,2013-06-10 21:19:00,
2013-06-10 16:24:00,97.7,63.8,29.91,SW,233,2.0,5.0,33,0.00,,FEW080,0.00,VWS V14.01,2013-06-10 21:24:00,
2013-06-10 16:29:00,97.7,63.8,29.90,SSE,166,1.0,3.0,33,0.00,,FEW080,0.00,VWS V14.01,2013-06-10 21:29:00,
2013-06-10 16:34:00,97.6,65.4,29.90,SW,222,0.0,5.0,35,0.00,,FEW080,0.00,VWS V14.01,2013-06-10 21:34:00,
2013-06-10 16:39:00,97.4,66.0,29.90,SW,215,1.0,2.0,36,0.00,,FEW080,0.00,VWS V14.01,2013-06-10 21:39:00,
2013-06-10 16:44:00,97.4,65.2,29.90,West,264,0.0,3.0,35,0.00,,FEW080,0.00,VWS V14.01,2013-06-10 21:44:00,
2013-06-10 16:49:00,97.5,64.4,29.90,West,268,1.0,4.0,34,0.00,,FEW080,0.00,VWS V14.01,2013-06-10 21:49:00,
2013-06-10 16:54:00,97.5,63.6,29.90,South,169,0.0,4.0,33,0.00,,FEW080,0.00,VWS V14.01,2013-06-10 21:54:00,
2013-06-10 16:59:00,97.4,63.5,29.90,South,180,2.0,5.0,33,0.00,,FEW080,0.00,VWS V14.01,2013-06-10 21:59:00,
2013-06-10 17:04:00,97.3,63.4,29.90,South,186,2.0,7.0,33,0.00,,FEW080,0.00,VWS V14.01,2013-06-10 22:04:00,
2013-06-10 17:09:00,97.2,63.3,29.90,SSW,211,1.0,3.0,33,0.00,,FEW080,0.00,VWS V14.01,2013-06-10 22:09:00,
2013-06-10 17:14:00,97.1,62.4,29.89,South,186,1.0,5.0,32,0.00,,FEW080,0.00,VWS V14.01,2013-06-10 22:14:00,
2013-06-10 17:19:00,97.1,63.2,29.89,SSW,203,1.0,5.0,33,0.00,,FEW080,0.00,VWS V14.01,2013-06-10 22:19:00,
2013-06-10 17:24:00,97.0,64.0,29.89,WSW,237,0.0,6.0,34,0.00,,FEW080,0.00,VWS V14.01,2013-06-10 22:24:00,
2013-06-10 17:29:00,97.1,61.5,29.89,SSE,160,2.0,5.0,31,0.00,,FEW080,0.00,VWS V14.01,2013-06-10 22:29:00,
2013-06-10 17:34:00,97.1,58.6,29.89,SSW,210,2.0,5.0,28,0.00,,FEW080,0.00,VWS V14.01,2013-06-10 22:34:00,
2013-06-10 17:39:00,97.3,58.8,29.89,SSW,206,4.0,5.0,28,0.00,,FEW080,0.00,VWS V14.01,2013-06-10 22:39:00,
2013-06-10 17:44:00,97.2,57.7,29.88,South,183,3.0,6.0,27,0.00,,FEW080,0.00,VWS V14.01,2013-06-10 22:44:00,
2013-06-10 17:49:00,97.1,58.6,29.89,South,186,5.0,8.0,28,0.00,,FEW080,0.00,VWS V14.01,2013-06-10 22:49:00,
2013-06-10 17:54:00,97.1,58.6,29.89,SW,226,2.0,5.0,28,0.00,,FEW080,0.00,VWS V14.01,2013-06-10 22:54:00,
2013-06-10 17:59:00,97.0,60.5,29.88,SW,217,4.0,6.0,30,0.00,,FEW080,0.00,VWS V14.01,2013-06-10 22:59:00,
2013-06-10 18:04:00,96.9,59.4,29.88,South,183,4.0,6.0,29,0.00,,FEW085,0.00,VWS V14.01,2013-06-10 23:04:00,
2013-06-10 18:09:00,96.7,60.2,29.88,SW,214,4.0,5.0,30,0.00,,FEW085,0.00,VWS V14.01,2013-06-10 23:09:00,
2013-06-10 18:14:00,96.6,60.1,29.88,South,180,2.0,6.0,30,0.00,,FEW085,0.00,VWS V14.01,2013-06-10 23:14:00,
2013-06-10 18:19:00,96.5,61.8,29.88,SSE,164,0.0,5.0,32,0.00,,FEW085,0.00,VWS V14.01,2013-06-10 23:19:00,
2013-06-10 18:24:00,96.4,60.9,29.88,SSE,163,2.0,8.0,31,0.00,,FEW085,0.00,VWS V14.01,2013-06-10 23:24:00,
2013-06-10 18:29:00,96.3,59.8,29.88,SW,226,2.0,6.0,30,0.00,,FEW085,0.00,VWS V14.01,2013-06-10 23:29:00,
2013-06-10 18:34:00,96.1,59.7,29.88,South,187,4.0,6.0,30,0.00,,FEW085,0.00,VWS V14.01,2013-06-10 23:34:00,
2013-06-10 18:39:00,95.9,60.4,29.88,SSE,167,3.0,6.0,31,0.00,,FEW085,0.00,VWS V14.01,2013-06-10 23:39:00,
2013-06-10 18:44:00,95.8,58.5,29.88,South,191,4.0,6.0,29,0.00,,FEW085,0.00,VWS V14.01,2013-06-10 23:44:00,
2013-06-10 18:49:00,95.7,59.3,29.88,SSW,196,2.0,4.0,30,0.00,,FEW085,0.00,VWS V14.01,2013-06-10 23:49:00,
2013-06-10 18:54:00,95.5,59.2,29.88,SSE,151,3.0,5.0,30,0.00,,FEW085,0.00,VWS V14.01,2013-06-10 23:54:00,
2013-06-10 18:59:00,95.4,60.9,29.88,SE,128,2.0,7.0,32,0.00,,FEW085,0.00,VWS V14.01,2013-06-10 23:59:00,
2013-06-10 19:04:00,95.2,62.4,29.88,SW,225,2.0,6.0,34,0.00,,CLR,0.00,VWS V14.01,2013-06-11 00:04:00,
2013-06-10 19:09:00,95.0,63.1,29.88,SSW,209,1.0,7.0,35,0.00,,CLR,0.00,VWS V14.01,2013-06-11 00:09:00,
2013-06-10 19:14:00,94.7,62.8,29.88,SSW,196,1.0,4.0,35,0.00,,CLR,0.00,VWS V14.01,2013-06-11 00:14:00,
2013-06-10 19:19:00,94.5,63.4,29.89,East,100,0.0,5.0,36,0.00,,CLR,0.00,VWS V14.01,2013-06-11 00:19:00,
2013-06-10 19:24:00,94.3,63.3,29.89,SE,142,2.0,7.0,36,0.00,,CLR,0.00,VWS V14.01,2013-06-11 00:24:00,
2013-06-10 19:29:00,94.1,63.1,29.89,SSW,211,2.0,4.0,36,0.00,,CLR,0.00,VWS V14.01,2013-06-11 00:29:00,
2013-06-10 19:34:00,93.9,62.9,29.89,SW,226,4.0,5.0,36,0.00,,CLR,0.00,VWS V14.01,2013-06-11 00:34:00,
2013-06-10 19:39:00,93.8,62.0,29.89,South,186,1.0,6.0,35,0.00,,CLR,0.00,VWS V14.01,2013-06-11 00:39:00,
2013-06-10 19:44:00,93.6,61.0,29.89,South,191,2.0,5.0,34,0.00,,CLR,0.00,VWS V14.01,2013-06-11 00:44:00,
2013-06-10 19:49:00,93.4,60.0,29.89,SSE,163,5.0,8.0,33,0.00,,CLR,0.00,VWS V14.01,2013-06-11 00:49:00,
2013-06-10 19:54:00,93.3,60.8,29.89,South,180,3.0,7.0,34,0.00,,CLR,0.00,VWS V14.01,2013-06-11 00:54:00,
2013-06-10 19:59:00,93.1,61.4,29.89,SW,214,3.0,4.0,35,0.00,,CLR,0.00,VWS V14.01,2013-06-11 00:59:00,
2013-06-10 20:04:00,92.8,62.7,29.89,SSW,194,1.0,8.0,37,0.00,,CLR,0.00,VWS V14.01,2013-06-11 01:04:00,
2013-06-10 20:09:00,92.6,63.3,29.89,SSW,196,0.0,3.0,38,0.00,,CLR,0.00,VWS V14.01,2013-06-11 01:09:00,
2013-06-10 20:14:00,92.3,63.0,29.89,South,182,3.0,4.0,38,0.00,,CLR,0.00,VWS V14.01,2013-06-11 01:14:00,
2013-06-10 20:19:00,92.1,63.6,29.89,SSE,168,1.0,4.0,39,0.00,,CLR,0.00,VWS V14.01,2013-06-11 01:19:00,
2013-06-10 20:24:00,91.8,64.1,29.89,SSE,165,2.0,3.0,40,0.00,,CLR,0.00,VWS V14.01,2013-06-11 01:24:00,
2013-06-10 20:29:00,91.5,63.8,29.89,SSW,198,2.0,3.0,40,0.00,,CLR,0.00,VWS V14.01,2013-06-11 01:29:00,
2013-06-10 20:34:00,91.3,64.3,29.89,SSW,198,0.0,4.0,41,0.00,,CLR,0.00,VWS V14.01,2013-06-11 01:34:00,
2013-06-10 20:39:00,91.1,64.8,29.89,South,172,0.0,2.0,42,0.00,,CLR,0.00,VWS V14.01,2013-06-11 01:39:00,
2013-06-10 20:44:00,90.8,64.6,29.89,South,188,0.0,1.0,42,0.00,,CLR,0.00,VWS V14.01,2013-06-11 01:44:00,
2013-06-10 20:50:00,90.4,64.2,29.89,SSW,207,0.0,2.0,42,0.00,,CLR,0.00,VWS V14.01,2013-06-11 01:50:00,
2013-06-10 20:54:00,90.1,64.6,29.89,SSW,210,0.0,2.0,43,0.00,,CLR,0.00,VWS V14.01,2013-06-11 01:54:00,
2013-06-10 21:00:00,89.9,65.1,29.89,South,178,0.0,2.0,44,0.00,,CLR,0.00,VWS V14.01,2013-06-11 02:00:00,
2013-06-10 21:04:00,89.7,64.9,29.89,SSW,202,0.0,2.0,44,0.00,,FEW050,0.00,VWS V14.01,2013-06-11 02:04:00,
2013-06-10 21:09:00,89.5,64.7,29.89,South,186,0.0,2.0,44,0.00,,FEW050,0.00,VWS V14.01,2013-06-11 02:09:00,
2013-06-10 21:14:00,89.3,65.2,29.89,South,172,0.0,2.0,45,0.00,,FEW050,0.00,VWS V14.01,2013-06-11 02:14:00,
2013-06-10 21:19:00,89.1,65.0,29.89,South,189,0.0,1.0,45,0.00,,FEW050,0.00,VWS V14.01,2013-06-11 02:19:00,
2013-06-10 21:24:00,88.8,64.7,29.89,SSW,194,0.0,2.0,45,0.00,,FEW050,0.00,VWS V14.01,2013-06-11 02:24:00,
2013-06-10 21:29:00,88.6,65.2,29.89,SSE,163,0.0,1.0,46,0.00,,FEW050,0.00,VWS V14.01,2013-06-11 02:29:00,
2013-06-10 21:34:00,88.2,64.8,29.89,SE,126,0.0,1.0,46,0.00,,FEW050,0.00,VWS V14.01,2013-06-11 02:34:00,
2013-06-10 21:40:00,87.8,65.1,29.89,SSE,153,0.0,0.0,47,0.00,,FEW050,0.00,VWS V14.01,2013-06-11 02:40:00,
2013-06-10 21:45:00,87.6,65.5,29.89,SSE,157,0.0,2.0,48,0.00,,FEW050,0.00,VWS V14.01,2013-06-11 02:45:00,
2013-06-10 21:50:00,87.5,65.4,29.90,SSE,157,2.0,2.0,48,0.00,,FEW050,0.00,VWS V14.01,2013-06-11 02:50:00,
2013-06-10 21:55:00,87.5,65.4,29.90,South,184,0.0,2.0,48,0.00,,FEW050,0.00,VWS V14.01,2013-06-11 02:55:00,
2013-06-10 22:00:00,87.3,65.8,29.90,South,186,0.0,2.0,49,0.00,,FEW050,0.00,VWS V14.01,2013-06-11 03:00:00,
2013-06-10 22:05:00,87.3,65.8,29.91,SSW,210,0.0,2.0,49,0.00,,FEW050,0.00,VWS V14.01,2013-06-11 03:05:00,
2013-06-10 22:10:00,87.4,67.1,29.91,SSW,205,0.0,3.0,51,0.00,,FEW050,0.00,VWS V14.01,2013-06-11 03:10:00,
2013-06-10 22:15:00,87.5,67.7,29.91,ESE,119,0.0,3.0,52,0.00,,FEW050,0.00,VWS V14.01,2013-06-11 03:15:00,
2013-06-10 22:20:00,87.4,67.6,29.92,ESE,109,0.0,5.0,52,0.00,,FEW050,0.00,VWS V14.01,2013-06-11 03:20:00,
2013-06-10 22:25:00,87.3,67.0,29.92,South,173,2.0,6.0,51,0.00,,FEW050,0.00,VWS V14.01,2013-06-11 03:25:00,
2013-06-10 22:30:00,87.3,66.4,29.92,South,186,0.0,5.0,50,0.00,,FEW050,0.00,VWS V14.01,2013-06-11 03:30:00,
2013-06-10 22:35:00,87.2,65.7,29.92,SSE,148,1.0,3.0,49,0.00,,FEW050,0.00,VWS V14.01,2013-06-11 03:35:00,
2013-06-10 22:40:00,87.1,65.1,29.92,SSW,199,2.0,5.0,48,0.00,,FEW050,0.00,VWS V14.01,2013-06-11 03:40:00,
2013-06-10 22:45:00,87.0,65.0,29.93,SW,222,2.0,5.0,48,0.00,,FEW050,0.00,VWS V14.01,2013-06-11 03:45:00,
2013-06-10 22:50:00,87.0,65.0,29.93,SSE,148,0.0,4.0,48,0.00,,FEW050,0.00,VWS V14.01,2013-06-11 03:50:00,
2013-06-10 22:55:00,86.8,65.4,29.93,South,172,4.0,6.0,49,0.00,,FEW050,0.00,VWS V14.01,2013-06-11 03:55:00,
2013-06-10 23:00:00,86.7,65.3,29.93,South,186,1.0,5.0,49,0.00,,FEW050,0.00,VWS V14.01,2013-06-11 04:00:00,
2013-06-10 23:01:00,86.7,65.3,29.93,SSE,155,1.0,3.0,49,0.00,,CLR,0.00,VWS V14.01,2013-06-11 04:01:00,
2013-06-10 23:02:00,86.6,65.2,29.94,West,281,0.0,4.0,49,0.00,,CLR,0.00,VWS V14.01,2013-06-11 04:02:00,
2013-06-10 23:07:00,86.4,65.6,29.94,South,179,2.0,4.0,50,0.00,,CLR,0.00,VWS V14.01,2013-06-11 04:07:00,
2013-06-10 23:12:00,86.3,65.5,29.94,SSE,164,1.0,6.0,50,0.00,,CLR,0.00,VWS V14.01,2013-06-11 04:12:00,
2013-06-10 23:17:00,86.1,65.9,29.94,SE,136,0.0,5.0,51,0.00,,CLR,0.00,VWS V14.01,2013-06-11 04:17:00,
2013-06-10 23:22:00,85.8,66.2,29.94,SSE,148,1.0,4.0,52,0.00,,CLR,0.00,VWS V14.01,2013-06-11 04:22:00,
2013-06-10 23:27:00,85.6,66.5,29.94,SW,232,3.0,5.0,53,0.00,,CLR,0.00,VWS V14.01,2013-06-11 04:27:00,
2013-06-10 23:32:00,85.4,66.3,29.94,South,180,2.0,4.0,53,0.00,,CLR,0.00,VWS V14.01,2013-06-11 04:32:00,
2013-06-10 23:37:00,85.2,66.7,29.94,SSE,164,2.0,2.0,54,0.00,,CLR,0.00,VWS V14.01,2013-06-11 04:37:00,
2013-06-10 23:42:00,84.9,66.9,29.94,SSE,165,0.0,2.0,55,0.00,,CLR,0.00,VWS V14.01,2013-06-11 04:42:00,
2013-06-10 23:47:00,84.6,66.7,29.94,South,183,0.0,2.0,55,0.00,,CLR,0.00,VWS V14.01,2013-06-11 04:47:00,
2013-06-10 23:52:00,84.4,67.0,29.94,ENE,74,0.0,5.0,56,0.00,,CLR,0.00,VWS V14.01,2013-06-11 04:52:00,
2013-06-10 23:57:00,84.2,66.8,29.95,SE,146,0.0,5.0,56,0.00,,CLR,0.00,VWS V14.01,2013-06-11 04:57:00,